Weather Roundup
Issued by NWS Springfield, MO

Home | Current Version | Previous Version | Text Only | Print | Product List | Glossary On
Versions: 1 2 3 4 5 6 7 8 9 10 11 12 13 14 15 16 17 18 19 20 21 22 23 24 25 26 27 28 29 30 31 32 33 34 35 36 37 38 39 40 41 42 43 44 45 46 47 48 49 50
000
NZUS99 KSGF 200359
HRRSGF

HOURLY WEATHER
NATIONAL WEATHER SERVICE SPRINGFIELD MO
1100 PM CDT SAT APR 19 2014

......SGF CWA......

CITY           SKY/WX    TMP DP  RH WIND       PRES   REMARKS
SPRINGFIELD    PTCLDY    60  45  57 SE9       30.13S
JOPLIN         MOCLDY    63  45  51 S5        30.12R
WEST PLAINS    CLEAR     61  39  44 SE6       30.18S
ROLLA          PTCLDY    60  39  45 SE9       30.15R
OSAGE BEACH    MOCLDY    64  37  36 S6        30.15S

......SURROUNDING SGF CWA......

CITY           SKY/WX    TMP DP  RH WIND       PRES   REMARKS
CHANUTE        MOCLDY    61  47  59 S8        30.10R
PARSONS        CLOUDY    65  46  50 SE6       30.10S
COFFEYVILLE    MOCLDY    62  47  57 S5        30.10R
EMPORIA        CLEAR     61  46  57 S12       30.06R
SILOAM SPRINGS PTCLDY    63  45  51 SE6       30.15R
HARRISON AR    CLEAR     62  46  55 S3        30.16S
NEAR YELLVILLE CLEAR     63  43  48 CALM      30.16R

......KANSAS AND MISSOURI......

CITY           SKY/WX    TMP DP  RH WIND       PRES   REMARKS
KANSAS CTY INT PTCLDY    60  44  55 SE8       30.09S
DOWNTOWN KC    PTCLDY    69  44  40 S8        30.08S
COLUMBIA       PTCLDY    62  41  46 SE8       30.14S
SEDALIA        PTCLDY    66  41  40 S3        30.13S
ST JOSEPH      CLEAR     61  44  53 SE7       30.07F
ST LOUIS       PTCLDY    61  42  49 SE8       30.19R
SPIRIT OF STL  CLEAR     62  41  46 E5        30.17R
KIRKSVILLE     PTCLDY    56  42  59 SE9       30.14R
WICHITA        PTCLDY    66  48  52 S15       30.04R
TOPEKA         MOCLDY    65  45  48 SE9       30.07R
OLATHE         PTCLDY    61  44  53 SE7       30.09S

......TENNESSEE......

CITY           SKY/WX    TMP DP  RH WIND       PRES   REMARKS
MEMPHIS        PTCLDY    64  44  48 CALM      30.15S
NASHVILLE      PTCLDY    60  40  47 NE6       30.17S

......ARKANSAS.......

CITY           SKY/WX    TMP DP  RH WIND       PRES   REMARKS
FAYETTEVILLE   CLEAR     52  47  83 CALM      30.15R
FT SMITH       PTCLDY    65  51  60 CALM      30.13R
LITTLE ROCK    PTCLDY    63  52  67 CALM      30.16S

......OKLAHOMA.......

CITY           SKY/WX    TMP DP  RH WIND       PRES   REMARKS
TULSA          CLOUDY    65  50  58 SE6       30.08S
PONCA CITY     CLEAR     67  47  48 SE15      30.06S
MCALESTER      CLOUDY    64  49  57 SE5       30.12S
OKLAHOMA CITY  PTCLDY    61  49  64 SE10      30.08R

......IOWA............

CITY           SKY/WX    TMP DP  RH WIND       PRES   REMARKS
DES MOINES     MOCLDY    66  44  45 S9        30.08S
QUAD CITIES    PTCLDY    55  35  47 S9        30.15F

......ILLINOIS........

CITY           SKY/WX    TMP DP  RH WIND       PRES   REMARKS
QUINCY         CLEAR     59  41  51 SE9       30.16R
CHICAGO        MOCLDY    56  35  45 SE14      30.23F




USA.gov is the U.S. government's official web portal to all federal, state and local government web resources and services.